Theta_e
312 313 316 322 325 323 323 322 320 321 321 319 318 319 320 319 320 321 320 320 321 321 334 335 336 338 340 334 333 334 334 332 333 334 333 335 334 331 328 324 325 322 316 316 318 318 319 319 319
314 319 322 321 323 321 321 321 321 321 319 318 318 319 320 320 319 321 323 320 320 322 333 334 336 342 342 336 334 333 332 332 333 334 333 332 330 329 326 326 325 319 318 315 317 318 319 320 320
318 320 322 323 322 320 321 320 320 319 318 318 319 318 319 320 320 320 319 320 321 323 332 333 334 337 336 334 334 333 333 334 334 334 332 331 329 328 330 328 324 321 319 317 315 316 316 317 318
319 319 318 321 321 319 318 318 317 320 318 317 317 319 317 318 319 318 318 319 321 323 330 333 334 336 339 338 339 340 338 335 334 333 332 330 330 328 327 326 323 319 318 317 314 314 314 314 313
318 319 322 321 320 318 317 317 316 319 319 319 318 319 318 318 319 317 317 318 319 322 325 332 334 336 339 339 339 340 340 337 335 334 333 333 331 327 325 323 320 316 313 313 313 313 313 312 311
320 318 321 321 320 318 317 316 317 318 316 318 317 318 317 316 317 317 317 318 318 320 324 324 330 334 336 338 337 339 339 337 335 335 333 334 332 330 327 325 325 322 313 311 311 311 311 310 307
319 318 321 321 320 318 318 315 317 317 316 317 316 318 316 315 315 316 317 317 318 319 322 325 325 328 333 334 336 338 337 336 335 334 333 334 332 332 331 327 328 326 320 315 310 310 308 305 303
316 318 318 319 319 319 317 315 315 316 317 315 315 317 317 314 315 316 317 318 318 318 319 322 324 325 326 332 333 334 335 334 334 333 333 332 334 333 330 329 326 327 325 321 316 309 307 304 303
314 317 317 318 318 318 316 317 315 315 315 315 313 313 313 314 314 315 317 317 317 318 318 319 320 322 324 325 330 332 333 333 333 333 332 332 332 333 330 330 327 327 326 324 323 319 309 305 303
316 317 316 315 316 318 317 316 316 316 316 315 313 313 313 312 313 314 315 316 316 316 316 317 318 319 320 323 325 331 331 332 331 331 331 331 331 331 329 330 328 327 327 324 323 323 319 309 304
315 316 313 314 315 316 317 316 315 316 317 315 314 311 311 311 312 313 313 313 313 313 313 314 315 316 318 320 323 328 338 333 331 331 331 331 330 330 328 328 327 326 325 324 324 322 321 320 310
317 315 314 316 315 315 316 315 315 315 313 311 311 310 310 311 311 312 312 312 313 313 313 313 313 313 315 318 320 325 334 335 332 330 329 329 329 329 327 327 326 325 325 324 323 322 322 321 318
317 316 315 315 314 314 313 315 315 312 309 309 309 309 310 311 311 311 312 312 312 312 313 313 313 313 313 316 322 331 333 332 330 329 327 327 326 327 327 328 326 325 324 323 321 322 322 322 320
314 314 314 314 314 313 314 313 312 308 307 308 308 309 310 310 311 311 310 311 311 311 312 312 313 313 313 313 321 333 329 329 329 328 329 330 329 328 328 329 328 325 325 323 323 323 322 321 320
313 315 315 314 312 313 312 314 313 307 307 307 308 309 309 309 310 310 310 310 310 311 311 312 312 313 313 312 328 331 329 327 327 326 326 325 326 327 327 328 325 325 326 324 325 324 322 320 319
315 314 319 314 312 311 313 319 310 307 307 308 306 305 305 306 307 307 308 309 311 312 313 314 314 314 312 317 329 328 328 327 326 326 324 324 323 324 324 325 325 326 326 325 325 324 322 320 319
314 320 316 316 312 313 314 317 310 306 307 307 305 303 302 303 305 306 307 310 314 318 320 321 320 320 319 325 326 326 326 325 324 324 323 323 323 323 323 324 324 323 323 323 323 323 322 321 320
320 317 315 317 314 313 315 316 309 306 307 306 304 303 302 302 305 306 307 311 318 321 322 322 323 323 322 324 324 324 324 323 322 321 320 320 319 319 318 319 318 318 319 320 320 319 318 318 318
316 315 317 314 312 314 316 316 315 307 306 306 304 302 301 303 305 306 307 311 317 320 320 322 321 321 322 322 322 322 321 320 318 314 314 315 315 316 315 315 315 315 314 314 314 314 314 313 313
313 315 316 313 311 312 315 315 314 307 307 306 304 302 301 300 302 305 307 309 311 313 315 317 317 318 318 316 314 312 310 308 308 308 310 310 311 312 312 312 312 311 311 311 311 311 310 309 308
313 315 316 316 312 311 312 316 312 305 304 302 301 301 301 301 301 302 304 305 306 306 306 306 306 306 306 305 306 306 305 306 306 306 305 305 305 305 305 305 304 304 304 304 304 304 303 303 302
315 311 312 312 314 319 310 322 314 308 306 303 301 301 300 299 300 301 302 304 304 304 303 303 303 303 303 304 304 304 304 304 303 302 302 302 302 301 301 301 301 300 300 299 298 298 297 297 299
316 311 312 312 314 314 313 316 318 307 308 305 303 302 301 299 298 300 301 302 302 302 302 301 300 300 301 302 302 301 301 301 299 298 297 296 295 295 294 293 293 293 292 292 291 291 291 291 290
308 310 309 310 313 317 317 316 318 312 310 307 303 302 300 298 298 299 300 301 301 300 300 299 299 299 299 299 299 299 298 297 296 295 295 294 293 293 292 292 292 291 291 290 290 289 289 289 288
311 314 319 319 318 319 310 313 317 311 307 306 304 302 300 298 298 298 299 299 299 298 298 298 298 299 298 298 298 297 296 295 295 295 294 293 292 292 291 290 290 290 289 288 288 288 287 287 287
311 317 322 324 319 318 309 315 315 307 305 303 304 302 300 297 297 298 299 299 299 298 298 298 298 299 297 296 296 294 294 294 294 293 292 291 291 290 290 289 288 287 287 287 286 286 286 286 286
311 313 313 313 307 317 316 313 311 305 304 303 303 301 300 298 297 298 298 299 298 298 297 297 297 296 295 294 294 293 293 292 292 292 291 290 290 289 288 287 286 286 286 286 286 286 286 286 286
310 312 315 315 321 322 314 313 316 308 307 303 301 301 300 298 298 297 297 299 299 297 296 295 294 294 293 293 292 292 292 291 291 290 290 289 289 288 287 286 286 285 285 285 285 285 285 285 285
311 312 312 315 316 320 318 313 310 310 309 305 303 302 301 299 298 298 299 300 299 296 295 294 293 292 292 292 291 291 291 290 290 289 289 289 288 288 287 286 286 285 285 285 285 285 285 285 285
312 313 313 318 314 311 312 316 306 307 307 306 304 302 301 300 299 300 300 300 298 297 294 293 292 291 291 291 290 290 290 290 289 289 289 288 288 288 287 286 285 285 284 284 284 284 284 284 284
Wind_Speed
2 1 0 1 3 1 4 4 2 2 2 2 1 2 7 5 5 4 3 3 2 9 19 18 17 15 13 12 9 7 6 4 2 2 3 3 1 2 4 5 8 9 11 7 4 5 5 5 5
1 2 2 0 2 5 5 2 3 3 2 1 2 0 3 8 5 4 4 3 4 11 18 17 17 15 14 12 10 9 7 4 2 1 0 0 2 2 4 6 9 10 10 10 5 3 4 4 3
3 2 1 1 1 4 5 2 2 2 1 1 1 2 2 4 6 4 5 5 5 9 17 17 16 14 12 10 10 10 8 6 4 3 2 2 2 2 4 7 10 11 11 10 6 3 2 2 2
2 1 3 1 7 3 3 2 0 2 2 1 1 5 4 5 3 4 6 6 6 7 14 16 16 14 12 11 10 9 10 8 6 4 3 2 2 1 3 6 10 12 10 8 4 3 2 2 3
1 1 2 4 4 3 1 1 1 2 2 2 1 4 5 6 6 5 5 6 6 6 9 14 16 15 13 12 11 10 9 7 5 5 4 2 1 2 4 7 9 12 11 8 4 3 2 2 3
1 1 3 6 5 3 2 1 2 3 2 2 2 5 5 6 4 3 3 3 4 6 8 8 13 15 14 13 12 12 10 8 5 4 3 4 3 2 4 6 8 10 11 9 5 3 4 4 3
1 1 2 4 7 5 3 1 3 3 4 4 1 4 7 6 3 1 2 3 4 5 7 9 10 14 16 16 15 12 10 7 7 7 6 7 5 8 6 6 6 8 7 8 5 4 4 5 3
2 1 5 4 8 5 3 3 1 2 3 1 1 3 4 4 1 3 4 4 5 6 8 9 10 11 14 17 18 16 13 11 10 10 8 10 9 10 10 8 8 8 9 8 8 7 6 4 3
2 2 4 6 6 5 2 4 1 1 1 2 2 2 4 8 6 6 7 6 6 7 8 9 10 12 13 15 18 20 19 16 14 13 14 12 12 12 12 11 12 8 10 9 7 7 6 5 4
1 2 3 3 4 6 3 1 0 3 0 3 3 2 6 8 7 9 11 10 9 10 11 12 13 13 13 13 14 14 16 16 15 14 13 13 13 13 13 9 10 9 12 13 12 9 8 7 6
1 1 3 3 5 3 3 2 1 2 2 2 2 2 1 2 3 4 5 6 7 8 9 12 15 15 15 14 12 12 13 13 12 12 13 12 12 11 13 13 12 12 12 12 14 14 14 10 10
2 1 2 2 5 4 3 2 2 2 1 3 3 5 4 4 5 4 3 0 2 3 5 7 8 12 16 16 15 12 10 9 11 10 12 13 13 14 13 13 11 13 13 13 13 14 16 12 11
3 2 3 3 5 5 5 5 1 2 3 4 6 4 2 2 3 3 4 4 4 5 7 8 9 11 13 17 15 12 8 7 10 13 11 11 9 12 12 12 11 12 12 15 12 14 14 17 14
2 2 5 5 4 5 5 2 6 4 6 5 4 1 1 2 4 4 4 4 5 6 7 8 9 10 11 13 14 13 11 12 10 8 9 10 12 13 14 12 8 10 12 12 11 13 12 15 14
0 4 6 5 3 4 7 4 6 5 6 3 2 2 3 3 4 4 4 5 5 5 4 4 4 4 7 14 17 16 13 8 6 5 3 6 8 10 14 7 7 10 13 16 14 10 12 15 16
2 3 4 3 3 2 6 4 8 1 8 3 1 0 1 1 1 0 2 3 4 5 4 4 3 4 8 14 17 17 12 10 6 3 1 3 5 6 11 11 14 14 17 16 16 13 13 14 15
2 6 6 2 2 2 6 1 7 1 6 3 2 2 2 2 2 4 6 8 8 9 11 11 12 14 16 18 18 16 12 9 5 2 2 5 7 6 9 8 5 5 8 8 9 9 12 15 17
7 6 5 6 3 3 6 9 7 1 3 3 4 4 4 5 6 8 10 11 13 16 20 20 20 21 18 18 18 17 15 10 7 4 1 1 2 4 5 5 6 7 8 8 9 8 10 14 14
2 4 7 3 2 4 11 13 8 5 5 6 6 7 7 9 12 13 14 15 16 18 20 22 22 23 22 19 16 16 13 10 6 4 5 3 2 3 4 5 6 7 8 10 10 10 13 14 17
7 9 13 4 3 4 9 14 8 7 5 6 8 9 9 11 15 19 20 21 21 21 21 21 21 20 19 18 18 17 18 18 16 12 9 7 4 3 2 3 5 6 6 7 9 10 11 13 15
12 14 11 9 3 4 5 14 11 5 6 9 9 11 11 13 19 22 26 28 28 28 28 27 26 24 23 22 20 19 16 15 13 12 9 8 7 7 6 6 7 8 8 9 11 11 11 11 13
15 13 9 7 5 9 3 6 5 8 10 12 14 14 15 16 19 22 25 27 27 27 26 23 21 20 18 16 15 13 14 13 13 11 11 9 8 8 8 8 9 9 10 11 12 13 13 14 14
6 6 10 7 11 5 8 6 3 6 12 13 19 19 18 17 18 21 23 25 25 24 22 20 18 18 17 16 13 11 11 13 13 11 9 7 6 6 7 8 9 10 11 12 13 13 14 15 15
14 9 5 3 3 8 15 13 8 7 10 17 23 23 23 22 22 23 23 23 23 22 20 18 16 16 15 12 10 9 11 11 10 9 6 5 5 6 7 9 10 11 11 12 13 14 14 15 15
6 10 4 5 6 7 3 9 12 6 8 17 29 31 27 25 26 25 23 22 21 20 17 14 12 12 11 9 8 10 11 11 7 4 3 3 4 5 6 8 9 10 12 13 14 15 16 16 17
16 18 7 7 6 3 2 8 5 2 7 4 25 29 28 28 29 28 26 23 21 19 16 12 11 9 10 10 11 12 11 8 6 5 4 3 5 7 8 10 11 12 13 14 15 16 16 17 19
10 11 4 5 1 2 6 5 6 6 6 9 21 28 30 29 32 31 28 24 22 19 15 13 13 13 14 14 11 10 8 5 3 3 4 4 6 7 9 11 12 13 14 15 16 17 19 20 22
6 12 5 5 5 6 4 5 8 10 14 10 17 27 30 31 33 32 30 26 23 20 17 16 15 14 14 13 11 8 5 2 1 2 3 5 7 9 11 13 14 16 17 18 19 21 22 24 26
6 7 5 3 4 4 3 5 5 10 17 19 25 31 34 33 35 35 32 28 25 22 20 18 17 16 15 14 11 8 6 4 1 2 4 7 10 12 14 16 18 19 20 22 23 25 27 28 30
11 8 15 7 6 4 2 5 4 4 11 21 23 28 30 33 37 37 35 31 29 26 23 21 19 18 17 15 13 10 8 5 4 4 6 8 11 14 16 17 18 20 21 23 25 27 28 30 31
Wind_Direction
309 300 50 73 213 151 104 97 348 121 144 50 52 351 56 41 19 49 5 129 115 184 187 182 180 180 185 184 187 190 182 175 139 91 86 103 54 1 344 351 3 11 28 21 45 58 66 63 57
65 108 90 224 211 145 108 92 117 66 64 102 123 91 77 69 48 70 58 78 99 166 184 184 181 177 184 181 190 193 197 209 213 184 192 282 315 320 333 343 2 13 13 20 0 37 55 61 60
108 109 235 66 76 112 120 139 96 82 62 224 139 58 39 44 41 61 54 93 101 151 179 187 190 186 181 179 191 201 213 221 220 236 253 279 294 311 335 336 346 349 356 2 349 353 7 7 349
132 41 66 250 112 88 82 105 253 168 135 72 105 105 78 45 59 58 75 81 96 148 178 187 191 194 194 196 205 204 197 203 213 236 249 265 288 295 320 329 335 334 336 340 338 331 329 322 305
124 144 138 125 112 125 201 273 230 171 110 100 324 95 79 47 80 85 92 81 92 136 171 191 197 199 199 199 205 208 197 205 225 246 234 230 233 298 326 331 338 342 339 339 329 312 317 309 299
169 245 189 175 145 161 193 256 206 170 119 121 89 121 85 66 86 109 117 110 108 144 163 185 203 207 209 208 218 213 205 207 228 226 242 249 252 329 327 330 332 343 352 352 348 341 327 323 303
95 248 137 151 153 176 154 248 205 113 140 87 66 147 138 34 29 230 187 172 145 151 168 182 195 207 211 215 225 227 226 232 246 237 268 227 262 298 303 313 319 334 343 3 20 354 345 341 335
92 104 150 182 185 168 141 188 108 55 91 71 91 154 162 284 331 243 217 199 197 185 182 189 198 205 213 214 220 229 235 234 243 247 258 243 249 268 289 295 300 313 328 337 355 354 344 338 325
104 202 186 180 177 150 151 182 141 308 221 64 71 127 257 285 274 246 231 226 221 220 221 221 218 211 214 219 218 221 225 232 236 238 243 250 252 264 281 288 292 311 307 308 321 335 331 322 310
243 241 177 153 154 152 155 222 107 223 175 154 127 333 292 280 256 230 221 225 234 239 242 243 240 233 226 222 224 222 220 228 235 236 246 250 253 269 277 282 306 305 316 320 319 311 314 314 301
168 264 155 166 167 163 168 260 186 257 174 71 340 320 165 150 167 181 189 209 227 239 247 251 249 244 239 230 220 223 222 221 231 236 237 252 266 277 276 290 297 301 306 320 326 324 326 307 305
208 186 193 148 174 169 203 157 204 244 97 238 257 150 113 109 105 105 109 144 266 250 251 257 257 243 236 233 224 213 213 215 220 233 247 248 263 263 275 283 299 303 302 306 313 324 321 322 304
219 190 213 225 195 237 238 235 194 114 201 163 148 148 114 52 29 4 343 325 302 294 284 271 258 247 240 232 219 202 196 194 203 219 226 238 252 270 274 282 290 297 297 301 306 312 325 324 313
136 249 262 267 248 222 220 163 174 139 150 153 155 158 359 343 332 321 309 302 300 292 284 276 267 256 236 215 203 183 187 193 198 215 227 231 240 245 255 262 284 286 275 277 284 295 308 322 319
79 286 285 235 221 220 178 172 159 145 171 166 181 224 244 258 262 270 291 317 325 314 304 274 248 234 196 186 176 173 186 183 189 187 201 224 253 252 260 242 259 272 271 262 277 272 299 309 313
248 243 255 125 162 158 194 203 158 198 211 211 206 272 309 318 265 319 26 49 51 42 47 59 81 108 141 160 161 167 175 173 172 161 85 300 295 297 291 289 270 266 274 269 262 274 286 294 298
208 257 222 255 189 169 223 164 161 43 188 178 154 116 85 45 43 90 99 95 95 91 94 99 111 116 129 144 153 158 150 163 162 173 290 294 306 303 296 293 1 351 340 319 294 275 286 296 297
207 217 227 234 168 215 226 248 165 106 174 167 148 126 108 109 119 125 125 119 115 108 106 104 108 111 116 123 130 134 137 143 148 139 126 132 334 340 348 329 334 332 330 320 314 324 312 310 309
177 210 238 173 145 229 243 254 199 191 173 172 166 150 135 130 123 126 127 122 117 114 112 113 113 114 118 121 126 129 129 118 118 106 94 81 40 347 339 331 319 315 312 316 314 313 311 308 305
216 237 243 267 193 233 253 256 238 198 205 199 176 159 150 132 126 124 124 124 122 122 121 118 116 118 121 121 121 118 113 111 106 99 98 86 69 52 16 344 337 332 327 313 311 312 315 314 320
225 225 233 255 159 231 272 265 221 189 180 170 176 162 153 143 134 127 123 122 121 119 116 112 110 110 108 106 107 110 112 108 104 98 87 73 52 37 26 16 10 0 353 349 350 346 340 342 344
235 216 223 212 220 257 218 280 207 181 184 190 182 176 167 157 145 136 128 123 120 117 114 112 110 110 110 114 117 117 119 121 108 95 78 57 45 32 27 23 19 15 14 9 9 7 5 2 354
255 156 201 204 225 259 199 257 193 173 207 195 188 181 175 166 157 145 136 131 129 125 122 116 112 110 110 113 116 118 119 113 99 88 78 64 44 31 22 19 18 11 9 8 5 359 358 356 354
134 108 78 94 191 248 227 217 203 198 215 183 188 185 179 174 167 158 148 141 138 135 130 121 116 113 114 118 118 119 113 103 93 82 62 45 30 20 10 7 3 5 0 356 356 355 353 352 348
185 160 194 221 208 245 154 207 250 197 183 191 183 184 181 178 174 168 160 152 148 143 138 129 122 114 118 125 132 142 134 123 109 81 67 54 38 19 9 5 356 354 351 349 346 345 344 343 341
196 190 191 213 205 183 134 225 233 96 136 160 187 179 177 180 181 176 170 164 161 158 155 152 150 143 150 155 154 151 147 139 122 112 85 43 16 3 359 354 351 349 346 343 341 339 337 335 332
186 214 176 107 1 233 203 235 237 155 169 168 176 179 183 183 185 181 179 176 175 172 170 173 174 172 165 165 164 163 159 138 107 76 44 7 351 349 346 341 339 337 335 333 332 331 330 329 327
210 152 182 227 211 234 214 248 222 201 197 183 182 188 187 188 188 188 187 185 183 184 187 187 184 181 175 173 174 177 178 174 121 35 10 346 339 340 336 332 330 329 329 328 327 328 328 328 327
162 190 206 203 203 225 243 233 212 193 186 186 194 194 190 190 191 191 191 192 194 195 197 198 196 191 190 189 190 196 203 208 251 323 329 329 330 331 327 325 323 323 325 325 326 328 328 328 327
233 220 193 204 189 239 284 247 162 190 188 189 189 192 193 194 195 196 197 199 200 203 205 207 202 199 199 201 204 208 222 234 251 283 305 314 318 322 323 319 318 320 321 322 323 324 325 325 325